Regional Weather Roundup
Issued by NWS Wakefield, VA

Home | Current Version | Previous Version | Text Only | Print | Product List | Glossary On
Versions: 1 2 3 4 5 6 7 8 9 10 11 12 13 14 15 16 17 18 19 20 21 22 23 24 25 26 27 28 29 30 31 32 33 34 35 36 37 38 39 40 41 42 43 44 45 46 47 48 49 50
468
ASUS41 KAKQ 192215
RWRAKQ

REGIONAL WEATHER ROUNDUP
NATIONAL WEATHER SERVICE WAKEFIELD VA
600 PM EDT MON AUG 19 2019

Note: "fair" indicates few or no clouds below 12,000 feet with no
significant weather and/or obstructions to visibility. * = Denotes
station may not report precipitation (e.g., rain,snow,etc.),
thunder or fog.

VAZ042-051-052>054-056-192300-
NORTHERN VIRGINIA

CITY           SKY/WX    TMP DP  RH WIND       PRES   REMARKS
WASH NATIONAL  PTSUNNY   92  68  45 S7        29.95F THUNDER HX  96
DULLES         PTSUNNY   91  68  46 NW7       29.96F HX  95
FORT BELVOIR   FAIR      92  70  48 S3        29.95F HX  98
QUANTICO       FAIR      87  72  60 NW5       29.95F
FREDERICKSBRG* FAIR      94  72  49 NE3       29.95S HX 102
STAFFORD*      FAIR      92  67  43 CALM      30.00S HX  95
WARRENTON      FAIR      93  64  37 CALM      29.96F HX  95
CULPEPER*      FAIR      92  69  45 W5        29.97S HX  97
MANASSAS*      FAIR      90  70  51 S6        29.96F HX  95
LEESBURG*      FAIR      93  72  49 CALM      29.98F HX 100
WINCHESTER     FAIR      91  63  38 NW6       29.97F
FRONT ROYAL*   FAIR      90  73  58 CALM      29.98F HX  98
LURAY*         FAIR      84  70  61 CALM      30.01F
$$

VAZ048-049-060>072-079>083-192300-
CENTRAL AND SOUTH CENTRAL VIRGINIA

CITY           SKY/WX    TMP DP  RH WIND       PRES   REMARKS
RICHMOND       PTSUNNY   88  70  55 S13       29.97S
CHESTERFIELD*  FAIR      90  72  55 E6        29.98R THUNDER HX  97
PETERSBURG*    FAIR      90  70  50 CALM      29.98S HX  95
HANOVER        FAIR      89  71  55 VRB5      29.98R HX  95
TAPPAHANNOCK*  FAIR      83  71  66 NW7       29.99S THUNDER
QUINTON*       CLOUDY    81  74  79 SW5       29.97S
CHARLOTTSVILLE PTSUNNY   83  65  54 NW13G29   30.01R THUNDER
GORDONSVILLE*  FAIR      91  72  54 CALM      29.97S HX  98
ORANGE*        FAIR      88  73  62 N3        29.97S HX  96
LOUISA*        FAIR      93  69  46 SW6       30.02S HX  98
BUMPASS*       FAIR      95  64  35 CALM      29.97S HX  96
FARMVILLE*     FAIR      96  69  42 CALM      29.96F HX 101
CREWE*         FAIR      82  82 100 CALM      29.98S HX  97
FORT PICKETT*  FAIR      87  66  49 SE9       29.99S
CHASE CITY*    FAIR      86  69  55 SW8       30.01R
CLARKSVILLE*   FAIR      88  66  48 CALM      30.00R
SOUTH HILL*    FAIR      88  76  67 S8        30.06R HX  99
LAWRENCEVILLE* FAIR      91  75  60 SE6       30.00R HX 101
EMPORIA*       FAIR      92  74  56 SE6       30.00S HX 102
$$

VAZ088>098-192300-
SOUTHEAST VIRGINIA

CITY           SKY/WX    TMP DP  RH WIND       PRES   REMARKS
NORFOLK        FAIR      91  70  49 S8        29.97F HX  96
VIRGINIA BEACH PTSUNNY   84  76  76 SE8       29.98F
NORFOLK NAVAL  FAIR      91  73  55 SE5       29.99F HX  99
WEST POINT*    FAIR      87  79  76 W3        29.97S HX 102
SALUDA*        FAIR      91  77  63 S9        29.96R HX 104
NEWPORT NEWS   FAIR      93  72  50 S10       29.97S HX 101
LANGLEY AFB    SUNNY     92  74  55 S9        29.97F HX 103
FORT EUSTIS    MOSUNNY   93  69  45 S7        29.95S HX  98
WILLIAMSBURG*  FAIR      97  73  46 CALM      29.98R HX 107
HR EXEC AP*    FAIR      92  75  57 S7        29.98F HX 103
FRANKLIN*      FAIR      92  69  46 S7        29.98S HX  97
US460-WAKEFLD  FAIR      94  71  47 VRB3      29.97S HX 101
$$

VAZ020-022-025-037-045-192300-
WEST CENTRAL AND SOUTHWEST VIRGINIA

CITY           SKY/WX    TMP DP  RH WIND       PRES   REMARKS
STAUNTON*      FAIR      80  67  64 CALM      30.06F
WAYNESBORO*    FAIR      84  64  51 E5        30.05F
HOT SPRINGS VA FAIR      81  66  61 NW6       30.22S
LYNCHBURG      FAIR      94  68  42 NW3       30.01S HX  98
DANVILLE       FAIR      93  70  46 VRB3      29.99F HX  99
SOUTH BOSTON*  CLOUDY    85  63  47 E15G25    30.01R
MARTINSVILLE   FAIR      91  66  43 CALM      30.04F
ROANOKE        FAIR      91  68  46 CALM      30.05F HX  95
BLACKSBURG     FAIR      85  67  55 CALM      30.14S
DUBLIN*        FAIR      84  66  54 S6        30.12S
MARION*        FAIR      85  71  62 CALM      30.17S
HILLSVILLE*    FAIR      81  67  61 CALM      30.15S
RICHLANDS*     FAIR      85  63  47 SW3       30.15F
WISE*          LGT RAIN  79  64  61 SW5       30.17R
ABINGDON*      FAIR      86  64  47 CALM      30.11S
$$

MDZ021>025-VAZ099-100-192300-
SOUTHERN MARYLAND AND THE DELMARVA PENINSULA

CITY           SKY/WX    TMP DP  RH WIND       PRES   REMARKS
PATUXENT RIVER PTSUNNY   90  75  61 S8        29.95S THUNDER HX 100
BAY BRIDGE APT FAIR      88  70  55 S3        29.95F
LEONARDTOWN    CLOUDY    77  70  78 NE6       29.98R
DOVER          FAIR      84  69  59 S10       29.94F
GEORGETOWN     FAIR      77  77 100 SW6       29.96F
EASTON         PTSUNNY   88  72  58 S9        30.00S
CAMBRIDGE      SUNNY     86  72  62 E13G18    29.95S
SALISBURY      FAIR      89  76  65 SE7       29.95F HX 100
TANGIER        FAIR      90  77  66 S10       29.96S HX 102
OCEAN CITY     FAIR      81  75  82 VRB6      29.97F
WALLOPS ISLAND FAIR      86  75  69 S13       29.98F HX  95
ACCOMACK*      FAIR      89  75  63 S10       29.98S HX  99
$$

NCZ012>017-030>032-192300-
NORTH CENTRAL AND EASTERN NORTH CAROLINA

CITY           SKY/WX    TMP DP  RH WIND       PRES   REMARKS
ROANOKE RAPIDS FAIR      79  73  83 S8        30.01R
RALEIGH        CLOUDY    82  69  64 SE7       30.05R
ELIZABETH CITY FAIR      90  76  63 SE9       30.00S HX 101
AHOSKIE*       FAIR      85  78  78 CALM      30.00S HX  97
EDENTON*       FAIR      89  77  67 S8        30.01S HX 100
CURRITUCK*     FAIR      89  77  67 S6        30.00S HX 102
KILL DEVIL HLS FAIR      85  75  72 CALM      30.01S
MANTEO         FAIR      85  77  76 S12       30.03S HX  95
CAPE HATTERAS  FAIR      85  78  80 SW8       30.04F HX  96
TARBORO*       NOT AVBL
GOLDSBORO      TSTM      74  71  89 N9G17     30.04S
WASHINGTON     LGT RAIN  82  76  84 NE8       30.01S
GREENVILLE     FAIR      86  73  66 W6        30.03R
NEW BERN       FAIR      86  77  74 S8        30.03R HX  97
WILMINGTON     FAIR      88  72  58 S12       30.02F
$$

VAZ048-192300-
ELSEWHERE

CITY           SKY/WX    TMP DP  RH WIND       PRES   REMARKS
HARRISBURG PA  PTSUNNY   91  65  41 NW8       29.96F
BALTIMORE      PTSUNNY   94  67  41 NW8       29.95S HX  97
ANNAPOLIS      FAIR      91  71  51 CALM      29.95F HX  97
ANDREWS AFB    FAIR      89  66  47 E3        29.96S THUNDER
PHILADELPHIA   PTSUNNY   91  69  48 NW10      29.95R HX  96
HENDERSON NC   FAIR      85  70  59 S8        30.02R
GREENSBORO     TSTM      81  72  74 SE17G25   30.06R
ROCKY MOUNT    PTSUNNY   71  68  90 SW7       30.04R
$$

VAZ100-192300-
MARINE

STATION/POSITION TIME  TEMP    WIND        PRES    WAVE   SWELL
                       AIR SEA DIR/SP/G            HT/PER HT/PER
                 (UTC) (F)     (DEG/KT/KT) (MB)    (FT/S) (FT/S)
CAPE MAY NJ      2124   79 76  190/ 11/ 13 1013.8F
LEWES DE         2124   79 75  210/  7/ 10 1014.6
15NM E FENWICK I 2150   80 80  190/ 14/ 16 1014.2F   3/ 8   2/ 8
OCEAN-CITY-INLET 2118   80 74  170/  5/  6 1016.3
44089 WALLOPS IS 2130      79                N/A     2/ 7
WACHAPREAGUE VA  2118   88     210/ 12/ 14 1014.9
THOMAS POINT MD  2200   86 83  210/ 13/ 15 1014.7F
GOOSES REEF MD   2154   86     180/ 14/ 16 1014.8F
COVE POINT MD    2124   85     190/ 14/ 17 1015.1
SOLOMONS ISLAND  2124   87 86  120/ 13/ 16 1013.6
BISHOPS HEAD MD  2118   87 88  160/ 10/ 12 1015.1
PINEY POINT MD   2124          150/ 11/ 12   N/A
CAMBRIDGE MD     2118   92 86  150/  9/ 15 1014.0
LEWISETTA VA     2118   86 84  190/ 13/ 17 1014.3
RAPPAHANNOCK LGT 2118                      1015.7
YORK RVR RNG VA  2124   85     140/ 16/ 19 1015.3
YORKTOWN VA      2124   93 84  170/  5/  7 1014.3
JAMESTOWN VA     2154   93 87              1015.2S
DOMINION TERM VA 2118   90     190/  5/  6 1015.3
KIPTOPEKE VA     2118      82  160/ 14/ 17   N/A
CAPE HENRY VA    2124   86     150/ 10/ 14 1015.6
WILLOUBY STN VA  2118   89     110/  9/ 10 1014.6
S CRANEY ISL VA  2124   89     140/  4/  7 1015.0
CAPE HENRY BUOY  2130      81                N/A     2/ 7
1ST LANDING BUOY 2150   85     180/  6/  8 1014.7F
64NM E OF VA BCH 2150   82 83  190/ 10/ 12 1017.1F   2/ 7   2/ 7
DUCK PIER NC     2118   85 78  150/  8/ 12 1015.9
44100 DUCK FRF   2130      83                N/A     2/ 7
44056 DUCK FRF   2130      81                N/A     2/ 7
OREGON INLET NC  2118   83 85  180/ 15/ 17 1016.8
HATTERAS NC      2118   83 81  210/  9/ 12 1017.4
DIAMOND SHLS NC  2150   83 84  210/ 12/ 14 1017.0F   3/ 6   2/ 8
CAPE LOOKOUT NC  2100   85     200/ 11/ 14 1017.2R
$$




USA.gov is the U.S. government's official web portal to all federal, state and local government web resources and services.